• In Portugal
  • List of Countries
  • For 7 days
  • Water Temperature
  • Satellite Maps
  • Weather Map
  • Weather Widgets
  • user-avatar
    Login

    Hourly Weather Yampol

    Today, 14 November, Wednesday

    Time Temperature Precipitation Wind Pressure Humidity
    00:00 -2°C° 0 mm 5 mps 761 mmHg 57%
    01:00 -2°C° 0 mm 5 mps 761 mmHg 58%
    02:00 -2°C° 0 mm 4 mps 760 mmHg 59%
    03:00 -2°C° 0 mm 4 mps 760 mmHg 59%
    04:00 -2°C° 0 mm 4 mps 759 mmHg 59%
    05:00 -2°C° 0 mm 4 mps 759 mmHg 60%
    06:00 -2°C° 0.4 mm 4 mps 759 mmHg 66%
    07:00 -2°C° 0.4 mm 4 mps 759 mmHg 73%
    08:00 -2°C° 0.4 mm 4 mps 759 mmHg 79%
    09:00 -1°C° 0.7 mm 3 mps 759 mmHg 82%
    10:00 -1°C° 0.7 mm 3 mps 758 mmHg 85%
    11:00 0°C° 0.7 mm 3 mps 758 mmHg 88%
    12:00 0°C° 0.2 mm 3 mps 758 mmHg 87%
    13:00 +2°C° 0.2 mm 2 mps 758 mmHg 86%
    14:00 +2°C° 0.2 mm 2 mps 757 mmHg 85%
    15:00 +3°C° 0 mm 2 mps 757 mmHg 86%
    16:00 +3°C° 0 mm 2 mps 757 mmHg 87%
    17:00 +4°C° 0 mm 1 mps 757 mmHg 88%
    18:00 +4°C° 0 mm 2 mps 757 mmHg 89%
    19:00 +4°C° 0 mm 2 mps 757 mmHg 90%
    20:00 +4°C° 0 mm 2 mps 757 mmHg 91%
    21:00 +5°C° 0 mm 2 mps 757 mmHg 91%
    22:00 +5°C° 0 mm 2 mps 757 mmHg 92%
    23:00 +5°C° 0 mm 2 mps 756 mmHg 92%

    Tomorrow, 15 November, Thursday

    Time Temperature Precipitation Wind Pressure Humidity
    00:00 +5°C° 0.1 mm 2 mps 756 mmHg 93%
    01:00 +5°C° 0.1 mm 2 mps 756 mmHg 93%
    02:00 +5°C° 0.1 mm 2 mps 756 mmHg 94%
    03:00 +5°C° 0.4 mm 2 mps 756 mmHg 94%
    04:00 +5°C° 0.4 mm 2 mps 756 mmHg 94%
    05:00 +5°C° 0.4 mm 2 mps 756 mmHg 94%
    06:00 +5°C° 0.2 mm 2 mps 756 mmHg 94%
    07:00 +5°C° 0.2 mm 2 mps 756 mmHg 95%
    08:00 +5°C° 0.2 mm 2 mps 757 mmHg 95%
    09:00 +5°C° 0.2 mm 2 mps 757 mmHg 92%
    10:00 +6°C° 0.2 mm 2 mps 757 mmHg 89%
    11:00 +6°C° 0.2 mm 2 mps 757 mmHg 86%
    12:00 +6°C° 0 mm 2 mps 758 mmHg 85%
    13:00 +5°C° 0 mm 3 mps 758 mmHg 83%
    14:00 +7°C° 0 mm 3 mps 758 mmHg 82%
    15:00 +5°C° 0 mm 3 mps 758 mmHg 83%
    16:00 +5°C° 0 mm 3 mps 759 mmHg 84%
    17:00 +4°C° 0 mm 3 mps 759 mmHg 85%
    18:00 +4°C° 0 mm 3 mps 760 mmHg 84%
    19:00 +4°C° 0 mm 4 mps 760 mmHg 84%
    20:00 +4°C° 0 mm 4 mps 761 mmHg 84%
    21:00 +3°C° 0 mm 4 mps 761 mmHg 84%
    22:00 +3°C° 0 mm 4 mps 762 mmHg 84%
    23:00 +3°C° 0 mm 4 mps 762 mmHg 84%

    Day after tomorrow, 16 November, Friday

    Time Temperature Precipitation Wind Pressure Humidity
    00:00 +3°C° 0 mm 4 mps 762 mmHg 83%
    01:00 +1°C° 0 mm 4 mps 762 mmHg 83%
    02:00 +1°C° 0 mm 4 mps 763 mmHg 82%
    03:00 0°C° 0 mm 4 mps 763 mmHg 83%
    04:00 0°C° 0 mm 4 mps 763 mmHg 84%
    05:00 0°C° 0 mm 4 mps 763 mmHg 85%
    06:00 -1°C° 0 mm 4 mps 764 mmHg 85%
    07:00 -1°C° 0 mm 4 mps 764 mmHg 85%
    08:00 -1°C° 0 mm 4 mps 764 mmHg 85%
    09:00 0°C° 0 mm 4 mps 765 mmHg 77%
    10:00 +1°C° 0 mm 4 mps 765 mmHg 69%
    11:00 +1°C° 0 mm 4 mps 765 mmHg 61%
    12:00 +2°C° 0 mm 5 mps 765 mmHg 58%
    13:00 +2°C° 0 mm 5 mps 765 mmHg 55%
    14:00 +3°C° 0 mm 5 mps 764 mmHg 52%
    15:00 +3°C° 0 mm 4 mps 764 mmHg 56%
    16:00 +1°C° 0 mm 4 mps 765 mmHg 59%
    17:00 +1°C° 0 mm 4 mps 765 mmHg 63%
    18:00 0°C° 0 mm 4 mps 765 mmHg 65%
    19:00 0°C° 0 mm 4 mps 765 mmHg 67%
    20:00 -1°C° 0 mm 5 mps 765 mmHg 69%
    21:00 -1°C° 0 mm 4 mps 765 mmHg 70%
    22:00 -2°C° 0 mm 4 mps 765 mmHg 70%
    23:00 -2°C° 0 mm 4 mps 765 mmHg 71%

    17 November, Saturday

    Time Temperature Precipitation Wind Pressure Humidity
    00:00 -2°C° 0 mm 4 mps 765 mmHg 70%
    01:00 -2°C° 0 mm 4 mps 765 mmHg 69%
    02:00 -3°C° 0 mm 4 mps 765 mmHg 69%
    03:00 -3°C° 0 mm 4 mps 765 mmHg 67%
    04:00 -3°C° 0 mm 4 mps 765 mmHg 65%
    05:00 -3°C° 0 mm 4 mps 765 mmHg 63%
    06:00 -3°C° 0 mm 4 mps 765 mmHg 61%
    07:00 -3°C° 0 mm 4 mps 765 mmHg 60%
    08:00 -3°C° 0 mm 4 mps 766 mmHg 58%
    09:00 -2°C° 0 mm 4 mps 766 mmHg 54%
    10:00 -1°C° 0 mm 4 mps 766 mmHg 50%
    11:00 0°C° 0 mm 4 mps 766 mmHg 46%
    12:00 +1°C° 0 mm 4 mps 765 mmHg 45%
    13:00 +1°C° 0 mm 4 mps 765 mmHg 44%
    14:00 +3°C° 0 mm 4 mps 765 mmHg 43%
    15:00 +1°C° 0 mm 4 mps 764 mmHg 47%
    16:00 +1°C° 0 mm 3 mps 764 mmHg 51%
    17:00 +1°C° 0 mm 3 mps 764 mmHg 55%
    18:00 0°C° 0 mm 3 mps 764 mmHg 56%
    19:00 0°C° 0 mm 3 mps 764 mmHg 58%
    20:00 -1°C° 0 mm 3 mps 764 mmHg 59%
    21:00 -1°C° 0 mm 3 mps 764 mmHg 60%
    22:00 -1°C° 0 mm 2 mps 764 mmHg 61%
    23:00 -2°C° 0 mm 2 mps 764 mmHg 61%

    18 November, Sunday

    Time Temperature Precipitation Wind Pressure Humidity
    00:00 -2°C° 0 mm 2 mps 763 mmHg 60%
    01:00 -2°C° 0 mm 2 mps 763 mmHg 59%
    02:00 -2°C° 0 mm 2 mps 763 mmHg 58%
    03:00 -2°C° 0 mm 2 mps 762 mmHg 56%
    04:00 -2°C° 0 mm 2 mps 761 mmHg 55%
    05:00 -2°C° 0 mm 2 mps 761 mmHg 54%
    06:00 -2°C° 0 mm 2 mps 760 mmHg 52%
    07:00 -2°C° 0 mm 2 mps 760 mmHg 51%
    08:00 -2°C° 0 mm 2 mps 759 mmHg 50%
    09:00 -1°C° 0 mm 3 mps 758 mmHg 45%
    10:00 0°C° 0 mm 3 mps 758 mmHg 41%
    11:00 +1°C° 0 mm 4 mps 757 mmHg 36%
    12:00 +1°C° 0.1 mm 4 mps 756 mmHg 41%
    13:00 +1°C° 0.1 mm 4 mps 756 mmHg 45%
    14:00 +1°C° 0.1 mm 4 mps 755 mmHg 49%
    15:00 0°C° 0.3 mm 4 mps 754 mmHg 58%
    16:00 0°C° 0.3 mm 4 mps 754 mmHg 68%
    17:00 -1°C° 0.3 mm 4 mps 753 mmHg 77%
    18:00 0°C° 0.3 mm 3 mps 753 mmHg 81%
    19:00 0°C° 0.3 mm 3 mps 752 mmHg 86%
    20:00 0°C° 0.3 mm 3 mps 752 mmHg 90%
    21:00 0°C° 0.1 mm 3 mps 752 mmHg 91%
    22:00 +1°C° 0.1 mm 2 mps 751 mmHg 92%
    23:00 +1°C° 0.1 mm 2 mps 751 mmHg 94%

    19 November, Monday

    Time Temperature Precipitation Wind Pressure Humidity
    00:00 +1°C° 0 mm 2 mps 751 mmHg 94%
    01:00 +1°C° 0 mm 2 mps 751 mmHg 95%
    02:00 +1°C° 0 mm 1 mps 751 mmHg 95%
    03:00 +1°C° 0 mm 1 mps 750 mmHg 95%
    04:00 +1°C° 0 mm 1 mps 750 mmHg 96%
    05:00 +1°C° 0 mm 1 mps 750 mmHg 96%
    06:00 +1°C° 0 mm 1 mps 750 mmHg 96%
    07:00 +1°C° 0 mm 1 mps 750 mmHg 95%
    08:00 +1°C° 0 mm 1 mps 750 mmHg 95%
    09:00 +2°C° 0 mm 1 mps 751 mmHg 91%
    10:00 +2°C° 0 mm 1 mps 751 mmHg 88%
    11:00 +2°C° 0 mm 2 mps 751 mmHg 84%
    12:00 +2°C° 0 mm 2 mps 751 mmHg 82%
    13:00 +3°C° 0 mm 2 mps 751 mmHg 80%
    14:00 +3°C° 0 mm 2 mps 751 mmHg 77%
    15:00 +3°C° 0 mm 2 mps 752 mmHg 79%
    16:00 +1°C° 0 mm 3 mps 752 mmHg 80%
    17:00 +1°C° 0 mm 3 mps 752 mmHg 82%
    18:00 +1°C° 0 mm 3 mps 753 mmHg 81%
    19:00 0°C° 0 mm 3 mps 753 mmHg 81%
    20:00 0°C° 0 mm 3 mps 753 mmHg 80%
    21:00 0°C° 0.1 mm 3 mps 753 mmHg 81%
    22:00 -1°C° 0.1 mm 4 mps 754 mmHg 82%
    23:00 -1°C° 0.1 mm 4 mps 754 mmHg 83%
    Show more